Theta_e
319 319 319 318 319 319 319 320 320 320 321 321 321 321 322 323 322 322 323 322 322 322 321 321 321 321 322 322 322 322 320 314 313 313 311 313 322 328 336 334 340 340 339 325 318 312 313 315 315 325 326 323 322 320 327 333 337 332 322 317 313 315 315 321 324 327 333 330 333 336 336 335 331 337 340 347 341 341 339 340 341 342 339 341 341 344 344 344
318 318 318 318 318 318 319 319 320 320 320 320 320 321 322 322 322 322 322 322 322 321 321 321 321 321 322 322 322 322 318 314 311 312 313 324 330 331 334 348 347 342 334 316 313 310 312 312 317 325 324 318 326 320 327 324 334 323 318 317 314 317 320 331 329 331 332 332 335 336 338 337 335 339 342 337 335 337 334 337 339 336 338 340 342 343 342 342
318 318 318 318 317 318 319 319 319 319 320 320 320 321 321 321 321 322 322 322 321 321 321 321 321 322 322 322 322 322 316 313 313 311 317 338 336 335 342 351 348 342 322 313 313 311 312 316 321 325 322 318 322 320 326 324 326 323 317 313 316 322 327 332 332 333 335 337 335 335 335 337 338 340 345 337 334 335 333 332 333 333 333 336 339 341 342 342
318 317 317 317 317 318 318 319 319 319 319 319 320 320 321 321 320 321 321 321 321 321 322 322 322 322 322 323 323 317 316 312 311 318 324 347 345 344 346 346 351 344 315 313 312 313 314 315 322 326 321 318 320 324 322 325 320 321 318 315 318 322 322 332 334 335 337 340 336 334 336 335 337 340 341 337 332 332 334 335 333 332 334 336 338 340 341 340
317 317 317 317 317 318 318 318 319 319 319 319 319 320 320 320 320 320 320 320 320 321 321 323 323 323 323 323 320 316 311 303 313 321 326 352 349 348 345 350 349 331 316 316 314 313 314 314 314 318 321 315 319 321 322 326 326 321 319 322 323 325 325 335 336 337 338 340 338 336 333 334 343 340 341 336 329 328 334 336 337 337 337 337 337 339 340 339
317 316 316 316 317 317 318 318 318 318 318 318 319 319 319 319 319 319 319 320 320 321 322 324 324 324 324 321 317 317 310 293 310 320 353 354 348 345 344 350 349 329 320 314 310 310 310 311 312 313 314 317 318 316 320 324 327 314 318 320 324 325 324 337 336 337 339 338 336 334 338 339 337 336 341 340 337 340 346 343 339 340 339 340 340 339 338 338
316 316 316 317 317 317 317 318 317 317 318 318 319 319 319 319 319 319 319 319 320 320 323 325 325 325 323 321 317 314 309 310 315 317 350 354 350 348 350 348 347 326 321 315 311 308 309 310 313 312 314 317 319 318 321 320 322 319 314 318 320 325 326 335 334 337 337 337 335 339 339 336 337 330 340 337 339 343 346 347 340 342 341 340 338 339 338 338
315 316 316 316 316 317 317 317 317 317 317 318 318 318 318 318 318 318 319 319 320 321 323 325 326 325 323 317 312 307 308 309 318 320 353 351 348 347 347 341 337 326 319 314 310 307 309 308 309 315 313 314 318 319 321 319 320 315 315 319 319 320 331 334 336 336 337 336 337 338 335 336 337 335 338 336 340 341 342 343 340 341 340 339 338 338 338 337
315 315 316 316 316 316 317 317 317 317 317 317 318 317 317 317 317 318 319 319 320 321 323 325 326 324 323 314 303 303 305 316 324 321 348 345 343 347 341 336 338 326 321 317 312 309 310 309 312 317 313 315 321 318 320 315 310 316 316 319 319 318 332 332 334 336 338 336 336 333 333 336 337 339 335 338 338 340 345 343 339 338 337 337 337 337 337 337
315 315 316 316 316 316 317 317 317 317 317 317 317 316 316 317 317 318 318 318 320 321 323 326 326 324 320 314 308 301 310 318 322 329 344 339 343 343 339 337 334 325 320 318 314 310 309 312 314 319 318 317 320 316 318 314 309 313 312 312 314 318 329 334 332 335 337 335 335 332 332 334 338 334 327 341 340 340 342 341 337 337 336 337 337 337 337 337
315 315 315 315 316 316 316 316 317 317 317 316 316 316 316 317 317 317 318 318 319 321 324 326 326 321 313 313 305 302 320 315 321 336 339 338 341 338 337 336 331 322 319 318 315 313 312 313 318 317 316 314 317 314 314 313 314 312 311 309 308 308 316 333 333 334 335 333 335 335 331 335 336 336 329 334 340 340 338 338 335 335 335 336 337 337 338 338
315 315 315 315 315 316 316 316 316 316 316 316 315 315 315 316 316 317 318 318 319 321 325 328 325 319 315 311 305 308 322 318 315 322 341 339 336 335 337 336 330 321 318 314 316 316 315 315 317 315 308 317 310 314 313 314 312 311 308 302 304 306 307 331 331 333 335 331 336 335 330 328 331 328 334 335 339 340 339 338 335 335 335 336 336 338 338 338
315 315 315 315 315 315 316 316 316 316 316 315 315 315 315 315 316 316 317 318 320 321 326 327 325 320 314 306 311 319 322 323 323 317 315 329 324 336 333 335 331 324 320 316 314 316 316 316 315 311 314 312 312 308 311 314 310 311 308 304 302 301 301 312 333 333 332 332 335 332 312 319 326 331 334 336 337 338 337 335 334 334 335 335 336 337 338 339
315 315 315 315 315 315 315 316 316 315 315 315 314 314 314 314 316 316 317 318 321 321 325 327 323 317 313 309 320 326 325 323 324 316 313 319 311 311 327 333 332 326 322 317 315 315 316 315 315 313 316 313 312 316 313 310 312 303 306 304 297 298 295 306 329 330 327 334 334 330 311 316 325 330 335 336 338 336 333 334 334 334 335 335 336 336 337 338
314 315 314 314 315 315 315 315 315 314 315 314 313 313 313 313 315 317 319 321 323 323 325 327 322 314 310 314 324 327 347 329 311 311 314 312 310 313 315 328 327 324 320 317 316 319 321 321 319 315 312 317 314 309 304 303 303 304 299 292 295 296 295 303 313 328 324 331 333 324 312 316 323 328 334 336 337 336 332 333 334 334 335 335 335 335 337 337
314 314 314 314 315 315 315 314 314 314 314 313 312 312 314 314 317 319 321 323 324 324 326 320 319 315 310 307 318 335 315 309 310 313 311 311 309 307 316 322 321 318 317 316 319 321 322 322 316 314 314 314 309 303 300 298 297 300 298 294 295 295 296 300 305 320 330 330 331 324 311 319 321 329 333 336 335 334 332 333 333 334 335 335 335 335 336 337
314 314 314 314 314 315 315 314 314 314 313 312 312 312 314 317 319 321 324 326 324 326 318 311 319 317 306 319 325 316 309 310 312 312 311 312 310 309 313 314 317 316 317 320 320 320 320 318 318 316 313 305 304 304 298 294 294 294 297 295 297 295 296 295 302 307 328 328 322 325 319 319 323 329 332 334 334 332 331 331 333 334 335 336 335 336 335 336
314 314 314 314 315 315 314 314 314 313 312 311 311 311 310 316 321 323 324 324 322 320 315 317 317 311 306 319 310 311 312 309 310 310 309 311 310 308 308 311 316 317 319 318 320 315 318 312 314 303 305 306 305 300 295 292 295 294 296 295 295 297 297 297 298 302 324 326 322 321 319 320 323 329 332 333 334 332 331 331 332 333 334 335 335 335 336 336
314 314 314 314 314 314 314 314 313 312 311 311 312 314 317 319 315 315 315 316 313 311 306 308 308 295 296 307 317 315 309 309 310 310 308 310 312 309 309 311 316 313 311 310 309 313 314 310 310 306 300 300 301 300 297 299 300 299 299 297 296 294 295 296 301 304 323 321 319 319 316 319 324 328 331 332 333 331 331 332 331 333 333 334 335 336 336 336
314 314 313 314 314 314 314 314 312 311 310 308 306 307 306 300 299 306 309 312 311 307 310 312 315 315 312 311 304 308 310 311 306 306 308 311 310 307 307 308 313 312 307 304 306 310 312 303 299 299 300 301 303 304 303 303 304 303 302 301 300 299 299 302 302 304 320 318 317 318 318 321 324 327 330 331 332 331 331 330 330 331 332 332 334 335 335 336
314 313 314 313 313 314 313 313 312 311 309 307 305 304 299 299 295 293 300 302 305 309 309 310 311 312 311 310 307 305 301 304 306 306 307 320 307 305 302 305 306 304 303 306 307 311 310 301 300 302 304 305 304 305 305 304 304 303 301 300 299 299 297 302 302 305 306 313 311 318 318 321 324 327 330 331 331 329 329 330 330 330 332 332 333 334 335 337
313 313 313 313 313 313 312 311 311 310 308 305 306 302 303 304 305 305 304 296 303 305 305 305 306 304 308 310 309 306 303 301 301 302 308 310 305 301 301 303 303 301 305 305 304 302 300 298 301 305 307 307 307 306 305 304 302 303 300 299 297 297 300 303 303 305 305 306 303 317 317 319 324 327 330 330 330 331 332 331 331 330 330 331 332 333 334 336
313 313 313 313 313 312 311 310 309 308 306 306 304 304 305 308 310 311 307 300 298 305 304 304 302 303 303 305 306 306 301 297 296 302 305 308 303 302 303 299 301 302 305 305 299 297 296 298 303 306 307 306 305 306 305 303 303 300 298 295 295 299 296 294 300 303 304 303 308 317 316 318 325 327 328 330 330 331 333 333 332 333 330 330 332 333 333 334
313 314 313 313 312 311 311 309 307 307 305 306 305 304 308 310 309 307 303 296 295 300 304 305 305 303 301 301 304 302 297 301 300 300 312 306 301 305 303 303 301 302 300 303 302 297 297 301 306 305 305 305 304 304 303 301 298 299 299 297 297 298 299 298 298 302 303 304 314 318 315 314 320 321 324 328 331 331 332 332 332 333 333 333 334 334 335 334
313 313 313 312 311 311 308 307 305 305 307 308 305 307 308 310 312 307 299 295 296 297 306 306 307 306 304 307 307 301 302 302 301 305 312 306 303 302 301 305 304 299 300 303 303 301 300 305 306 303 303 303 302 300 302 301 296 297 300 300 300 301 300 301 301 300 295 298 317 316 302 305 315 320 322 326 327 327 330 330 330 331 332 333 332 332 334 336
313 313 313 312 312 309 308 305 306 305 306 305 307 312 311 310 311 310 300 291 287 296 304 298 303 300 306 301 304 301 300 296 302 304 312 306 312 303 303 296 303 297 302 301 301 299 301 306 304 302 302 301 301 300 302 302 296 295 296 301 302 301 301 300 299 299 291 290 302 314 305 300 312 315 319 322 324 324 329 328 329 331 331 333 333 334 334 334
314 313 313 312 311 308 302 301 306 307 303 304 310 313 312 310 312 307 298 289 285 298 296 299 300 299 304 303 302 301 287 291 304 306 305 312 305 310 299 295 299 301 303 303 300 295 304 303 302 302 302 301 299 298 302 302 297 294 299 302 303 301 300 300 299 298 293 300 300 300 304 304 304 313 320 322 321 322 325 327 329 330 331 332 333 334 335 335
313 313 311 311 309 308 303 304 304 305 307 309 313 313 312 310 309 304 294 284 284 301 296 297 302 305 304 302 302 296 296 301 298 302 306 306 306 302 300 296 296 296 298 297 288 296 301 300 300 300 299 299 298 301 304 304 299 296 303 305 302 302 301 300 298 296 296 297 292 294 303 300 303 313 319 321 317 319 323 326 328 330 331 332 334 335 336 336
313 312 312 310 309 308 308 305 305 306 311 312 313 312 313 310 304 295 288 282 296 297 306 297 306 304 303 302 301 300 300 302 295 300 306 306 307 302 295 297 298 297 298 298 292 296 301 301 299 299 298 295 300 304 305 304 299 303 305 305 304 303 303 301 297 297 294 292 289 294 295 289 295 305 314 319 318 318 322 326 328 330 332 333 334 335 336 337
313 312 311 309 307 308 307 307 305 311 312 313 312 312 312 305 298 292 287 281 298 290 299 298 298 297 300 296 298 300 297 299 301 303 304 301 302 304 302 303 299 297 295 299 296 296 299 306 308 303 298 300 301 303 305 304 304 303 304 302 301 298 298 299 298 295 291 290 288 294 297 291 286 301 313 314 316 320 323 326 329 330 332 334 335 336 336 336
312 310 310 309 303 306 307 301 305 310 311 311 312 311 305 300 294 287 284 288 299 295 300 297 296 300 296 295 291 298 298 299 300 300 295 301 297 299 299 295 296 292 290 291 292 295 298 298 298 300 306 305 305 302 304 305 305 301 299 297 295 294 293 293 293 292 289 284 290 297 297 295 287 290 313 320 323 324 324 324 327 329 331 333 335 336 337 337
309 308 309 307 307 310 304 301 306 308 308 310 311 304 297 289 292 285 289 302 289 293 294 293 297 297 296 298 295 294 294 298 298 297 294 292 291 291 292 291 293 287 287 287 288 295 294 294 296 299 309 304 302 298 298 300 301 299 296 295 289 285 288 286 288 288 286 284 292 296 297 295 290 293 312 319 322 324 325 327 328 329 332 334 335 336 337 337
308 307 307 309 311 307 308 309 310 309 310 312 307 300 293 288 283 290 291 293 289 295 293 301 296 298 296 293 293 299 298 292 297 297 296 296 294 296 298 296 296 293 286 294 290 290 291 296 297 297 300 304 302 294 293 296 295 296 295 292 287 284 283 281 284 285 285 291 296 295 298 292 293 297 304 319 322 325 326 327 329 331 332 334 335 336 337 337
307 307 306 312 312 311 313 313 312 311 311 310 300 297 294 286 287 299 292 292 294 300 299 296 296 297 296 290 295 295 289 296 296 294 295 293 294 292 295 297 297 294 293 291 287 288 283 286 292 296 292 300 299 298 295 296 295 295 297 296 292 287 286 282 284 282 284 286 292 297 293 287 294 295 301 315 323 324 325 327 328 331 333 335 337 336 337 337
307 307 308 310 312 314 314 315 315 315 310 305 295 292 287 286 291 288 290 293 296 298 296 299 295 294 291 294 296 296 295 291 296 295 295 294 291 292 292 293 296 295 294 286 292 292 289 287 294 298 298 298 295 298 300 299 296 295 299 298 293 292 294 287 287 287 290 288 288 291 291 293 295 301 306 305 304 312 325 325 327 327 331 334 334 335 335 336
307 312 315 312 316 318 317 317 316 311 307 297 293 289 287 290 288 293 292 299 297 294 295 295 294 290 290 289 296 295 297 292 294 292 293 294 294 292 295 294 294 295 290 287 291 284 288 285 294 297 300 297 297 299 298 302 290 295 296 293 295 298 297 293 297 297 296 291 288 294 295 296 300 303 305 306 305 305 315 321 324 326 328 332 333 334 335 336
308 312 312 315 317 319 319 317 315 310 304 297 291 290 297 294 295 295 298 295 295 296 293 287 289 289 288 288 289 292 293 293 293 290 287 295 291 294 294 295 297 296 295 291 289 292 285 285 293 294 294 298 301 299 299 301 299 295 292 293 299 302 299 292 286 289 287 283 286 293 292 291 294 293 303 303 303 304 303 318 322 324 327 329 332 333 335 335
306 309 315 316 318 315 318 316 312 305 301 297 294 303 302 293 298 296 297 296 297 296 291 288 290 293 289 289 288 291 292 289 290 291 289 293 287 296 294 293 297 296 297 296 289 290 292 283 288 295 295 297 300 300 298 300 301 295 293 301 294 288 290 291 290 285 285 284 285 288 293 294 296 296 306 310 310 312 316 307 319 322 326 329 331 333 334 336
306 308 308 310 312 312 312 311 306 302 298 295 292 294 298 296 300 298 298 298 298 295 288 291 289 292 292 288 290 293 293 286 291 290 287 290 286 294 293 295 294 297 298 298 292 292 292 285 286 293 294 296 296 296 287 292 298 300 299 296 299 294 294 290 290 289 287 284 287 285 290 290 299 305 315 316 319 320 321 319 310 322 325 329 331 332 333 334
309 304 302 309 310 315 315 311 303 299 296 289 293 292 297 296 298 300 300 299 295 293 291 291 293 289 292 291 292 288 293 292 291 290 291 291 289 295 293 297 293 295 296 298 295 296 289 291 282 289 296 295 287 292 290 291 289 292 292 292 293 294 296 295 294 291 288 285 284 284 284 291 305 316 318 318 320 322 322 321 315 317 325 329 331 332 333 334
309 303 303 309 311 313 308 304 298 296 294 296 296 296 298 296 298 299 300 300 297 300 295 293 292 289 290 290 290 293 290 291 291 289 291 290 290 286 295 295 297 294 296 296 294 294 289 288 284 288 289 287 289 296 296 295 294 292 290 291 293 292 290 285 284 294 293 289 283 285 284 292 304 315 319 319 321 323 324 322 322 317 324 328 331 332 333 334
304 295 299 311 313 310 301 293 295 299 294 292 292 297 297 303 297 297 299 299 298 295 300 296 295 293 291 291 291 290 290 290 291 290 292 289 293 292 294 298 297 297 294 290 291 295 295 292 288 284 287 289 293 296 298 299 298 296 296 293 295 294 293 288 282 286 290 292 296 291 286 292 304 310 318 320 322 324 324 323 321 323 325 326 330 333 334 335
303 301 312 317 312 307 298 292 301 298 292 296 301 298 299 298 296 298 296 297 295 297 295 295 293 292 294 292 292 291 291 289 291 289 292 292 293 295 296 297 298 298 296 294 296 294 303 288 285 286 288 292 295 297 299 299 298 294 295 296 294 290 292 291 290 293 291 292 288 288 288 290 303 308 317 320 323 324 324 322 321 322 324 328 328 329 332 333
303 304 307 314 311 307 299 291 291 292 295 297 298 296 299 297 296 295 295 296 295 295 294 294 295 296 293 296 293 291 293 286 293 292 289 293 291 298 297 296 298 296 296 294 292 295 287 289 285 280 281 285 287 290 294 296 295 291 290 293 294 294 294 294 296 294 290 293 293 288 284 289 300 307 318 319 321 322 321 321 322 320 321 324 327 329 330 333
302 306 306 307 309 304 296 297 294 292 294 294 295 294 294 295 296 296 295 294 297 296 295 293 295 296 294 296 294 295 295 292 289 294 293 294 294 299 298 297 299 297 300 303 304 299 290 290 284 278 277 276 276 278 281 284 288 291 293 292 293 292 291 290 287 289 283 292 292 289 288 294 300 305 316 317 319 319 320 320 320 321 320 320 323 326 329 332
301 291 298 298 301 299 298 302 298 295 293 293 292 294 295 293 296 297 297 296 297 297 297 296 297 297 294 294 292 292 292 296 292 291 291 291 294 296 297 297 298 299 303 305 304 298 291 292 287 284 282 280 283 286 291 294 289 286 289 290 290 292 292 292 291 289 286 289 288 290 293 292 295 299 313 316 318 319 319 317 317 318 318 319 320 323 325 327
303 293 294 291 297 297 295 297 297 296 292 296 288 294 291 293 294 296 298 292 297 296 296 296 295 293 292 292 290 291 293 293 294 293 292 292 296 295 298 297 298 304 306 303 304 295 290 284 289 289 289 288 289 289 291 292 288 289 288 289 290 290 291 290 286 284 291 288 282 292 294 291 293 300 311 315 318 319 320 319 318 316 317 317 317 319 324 323
293 298 300 301 292 289 290 293 297 296 298 296 292 296 292 292 292 290 296 298 298 298 293 294 295 295 294 292 292 288 291 291 291 289 294 294 294 294 293 297 296 302 302 297 300 293 288 285 290 289 288 290 290 290 292 291 290 290 290 289 289 290 290 288 289 290 290 286 285 291 293 292 295 306 313 315 318 318 320 321 317 317 316 316 316 315 316 317
301 301 301 305 294 296 296 298 299 296 295 298 294 294 291 291 290 293 293 295 296 294 295 288 291 293 294 295 292 288 290 286 287 292 291 290 291 291 289 293 296 297 296 295 295 296 288 284 290 290 288 289 290 290 292 290 290 290 289 290 290 290 289 290 290 291 291 289 292 293 294 296 302 310 313 316 318 317 318 322 320 316 315 315 315 314 314 315
297 296 296 302 301 296 297 296 296 294 291 297 290 292 294 292 291 293 295 293 291 293 297 292 292 293 295 296 293 290 293 294 292 289 294 291 289 292 289 292 289 293 294 293 296 295 288 287 293 290 286 286 289 291 290 290 289 288 290 291 291 291 291 291 291 291 294 292 293 293 293 295 308 311 313 316 315 314 314 315 317 315 315 314 313 314 313 314
304 305 303 297 294 297 297 295 293 292 289 290 289 294 296 293 292 294 294 298 294 293 295 292 293 294 296 295 294 294 295 294 295 295 295 294 288 294 289 289 294 290 293 293 293 296 291 286 291 288 282 283 288 289 289 291 291 289 288 289 289 289 288 289 289 292 293 291 292 293 294 298 304 309 312 312 311 310 310 311 313 314 314 315 312 312 313 312
306 308 307 300 292 301 292 296 293 290 288 293 297 295 295 293 296 296 291 298 299 298 297 296 296 294 292 292 293 294 297 298 296 296 295 294 295 295 294 294 294 292 291 291 293 289 289 287 285 284 281 280 287 290 289 289 287 284 285 288 292 293 293 297 299 302 301 300 294 292 293 302 304 307 305 306 309 309 309 309 309 312 314 314 311 311 312 313
Wind_Speed
21 20 21 21 20 19 19 19 19 19 18 18 19 18 17 17 17 16 14 14 13 13 12 11 12 12 10 9 9 8 5 2 3 3 4 12 8 14 6 12 8 14 12 1 1 2 4 6 6 6 6 5 4 6 8 9 7 4 5 3 5 5 4 3 3 3 4 6 7 7 5 8 9 6 5 6 5 4 5 5 4 4 6 9 15 16 17 19
21 21 21 21 21 21 21 21 20 19 19 19 18 17 17 18 18 17 15 14 13 12 11 10 10 11 10 8 7 6 4 2 5 7 16 6 10 12 13 7 7 11 11 3 4 5 5 6 7 7 6 4 4 6 6 5 9 7 2 4 8 3 5 3 4 6 6 4 9 7 5 5 5 8 5 6 7 7 6 4 5 8 12 15 15 18 19 19
22 22 22 22 22 22 21 21 20 19 20 19 18 17 17 18 17 16 16 14 13 12 10 9 9 9 9 7 6 4 3 3 4 6 12 18 14 14 14 7 9 14 10 4 4 5 6 7 6 7 5 4 4 7 6 5 6 8 5 6 8 6 1 5 10 8 5 12 11 7 4 5 3 2 4 2 8 6 8 9 7 11 18 18 18 17 18 18
23 23 23 22 23 23 22 22 22 22 20 18 18 18 17 17 17 16 15 14 13 12 10 9 8 7 7 6 3 1 2 3 1 3 4 11 17 15 14 11 10 12 6 2 4 5 3 3 2 7 4 6 5 6 5 7 4 2 5 7 8 4 3 4 7 8 10 13 12 8 4 4 3 2 3 7 8 4 5 8 13 20 21 21 19 18 18 17
23 23 23 23 23 23 23 23 23 22 21 20 20 17 16 17 17 16 15 14 12 12 10 8 7 6 5 3 1 0 2 2 1 2 1 11 15 16 15 12 14 6 7 3 1 2 1 0 3 2 5 5 5 4 10 8 7 2 9 11 12 1 2 8 7 11 10 9 13 11 10 4 3 4 5 10 9 7 7 10 12 18 22 22 22 20 17 16
23 24 24 24 24 24 24 24 22 22 22 22 20 19 19 17 16 16 15 14 13 11 10 8 6 6 4 2 0 1 1 2 2 2 6 8 14 18 17 12 14 7 5 4 5 2 4 2 3 1 3 4 6 7 4 9 7 8 7 9 12 7 2 5 10 10 12 10 13 12 9 10 6 3 1 1 2 6 3 4 17 18 19 18 18 20 18 18
22 23 24 24 25 25 24 23 24 23 22 22 21 21 20 19 17 15 15 12 13 11 9 8 6 4 2 2 1 0 1 6 4 8 8 9 9 12 13 12 11 6 6 5 4 4 6 3 5 5 3 7 9 8 10 5 7 8 9 5 8 9 11 12 12 13 9 12 13 9 13 9 9 6 5 5 3 5 7 2 20 15 18 19 19 17 18 18
23 23 25 25 26 26 25 23 23 23 23 21 21 20 21 19 16 16 14 14 13 12 9 7 5 2 1 2 1 0 1 7 11 6 8 11 11 13 12 6 7 6 8 9 9 8 6 7 8 4 4 6 3 8 6 7 8 8 10 12 12 7 8 14 13 12 10 6 9 12 11 10 10 8 7 5 5 8 7 4 17 12 17 16 18 18 17 16
24 25 25 26 26 26 26 25 26 25 23 23 21 23 22 20 17 16 15 13 13 11 9 6 4 1 1 1 2 1 4 7 4 6 9 11 10 10 12 7 6 10 7 6 8 7 6 8 7 7 6 9 8 8 7 3 6 8 14 11 9 5 11 13 13 12 12 7 11 11 8 7 7 10 5 7 9 9 5 4 16 15 16 16 17 17 17 16
24 26 26 26 27 27 26 27 27 26 25 23 23 23 21 20 19 18 16 13 12 11 9 7 3 2 1 0 2 1 3 4 3 7 10 10 10 11 8 6 11 9 8 8 5 8 10 6 11 6 6 9 8 6 3 5 6 4 4 5 5 7 10 15 16 12 10 9 15 11 11 9 8 10 3 6 9 8 5 5 20 19 16 16 15 13 15 17
25 26 27 28 28 28 27 27 27 27 26 25 25 23 22 21 19 17 15 13 11 12 8 5 3 4 1 1 2 4 6 2 4 6 11 11 11 9 9 9 11 9 8 7 9 11 11 9 3 3 2 5 2 4 4 3 3 7 8 6 6 5 5 16 15 15 10 8 11 9 10 8 8 2 4 9 10 10 7 9 17 19 17 15 15 11 13 13
25 26 26 27 28 27 29 28 27 28 26 27 25 23 23 21 20 17 15 14 12 10 8 6 7 2 0 0 3 7 3 1 1 6 10 12 9 12 11 12 13 12 9 9 9 11 11 7 1 2 4 6 3 4 5 3 4 6 5 4 6 4 3 16 17 14 16 9 11 9 12 6 7 4 5 10 8 11 9 11 16 16 15 15 14 11 13 13
25 26 27 27 27 28 27 28 29 28 27 27 26 24 23 22 20 17 12 12 8 9 7 7 5 1 1 1 9 10 7 6 6 4 5 11 6 8 10 13 14 11 13 9 9 11 8 7 6 7 8 5 6 5 5 4 4 7 4 1 3 4 1 11 13 17 12 11 17 13 4 7 11 7 6 11 11 11 10 13 15 14 15 14 12 12 12 13
26 26 27 27 27 26 28 27 29 29 29 29 28 25 23 22 21 15 12 13 12 8 6 6 3 1 1 5 5 3 5 5 8 7 3 3 3 3 8 9 11 9 7 7 5 5 9 3 3 8 4 6 6 3 9 4 2 3 6 3 2 0 3 5 16 16 11 13 20 11 3 6 10 10 6 11 12 14 13 15 16 15 15 15 12 12 13 13
27 27 28 27 28 27 26 27 26 25 28 30 28 26 25 23 22 14 11 11 10 8 8 6 2 2 0 7 7 8 12 5 4 4 5 4 3 1 4 8 9 9 9 8 3 2 3 6 5 4 6 4 2 2 4 3 2 2 3 3 3 4 5 5 11 17 11 7 19 6 2 9 13 13 10 11 11 12 14 16 16 15 14 15 12 12 13 12
25 26 28 28 27 26 27 25 24 25 25 26 27 29 28 23 19 13 10 8 6 9 6 2 2 2 1 7 4 11 2 2 4 9 5 6 5 3 4 11 9 8 7 6 6 4 4 3 5 4 6 3 2 0 2 4 5 1 3 4 2 2 5 4 3 15 17 16 15 11 4 3 3 9 11 13 15 14 14 15 15 16 15 14 12 12 12 12
23 24 27 28 27 26 27 24 24 26 24 25 29 30 27 21 10 7 5 7 5 4 4 1 3 2 1 2 5 4 2 4 3 1 2 3 4 3 1 4 5 7 7 3 5 4 3 3 1 3 1 2 3 2 1 3 4 4 1 2 2 3 2 4 5 2 15 19 13 12 4 10 6 13 13 14 17 16 15 16 16 16 14 14 12 12 13 13
25 24 27 27 27 27 25 25 24 25 24 25 25 24 22 23 10 11 9 5 4 4 2 3 1 0 5 3 1 3 2 2 1 3 3 2 5 3 2 3 2 5 5 3 1 3 1 1 1 2 0 3 1 2 6 8 8 5 2 2 5 2 4 8 2 2 17 15 16 15 6 8 5 15 16 17 18 17 17 16 17 16 15 15 12 13 14 13
28 27 26 27 27 27 26 25 25 24 24 25 24 25 20 7 1 2 6 3 2 1 1 1 3 3 4 2 6 3 3 4 2 0 0 0 1 2 2 1 3 6 4 3 2 4 0 0 1 0 3 5 8 6 7 6 4 4 3 4 3 4 6 6 9 5 19 11 11 15 12 9 10 14 15 15 17 17 15 13 14 15 15 15 14 13 13 13
28 26 27 27 24 25 25 23 24 23 21 19 13 10 4 5 3 1 0 2 2 5 6 3 5 4 10 8 3 1 2 2 1 3 2 1 2 2 1 1 1 4 5 5 2 6 3 5 5 7 6 6 5 6 6 7 5 6 5 5 8 8 10 8 7 5 14 13 16 18 12 12 15 17 17 17 16 14 13 14 15 16 16 15 15 15 15 15
25 26 27 26 25 24 23 25 24 22 18 9 7 2 3 2 3 3 7 7 6 7 8 9 8 8 8 6 7 1 3 1 2 1 4 1 3 4 1 2 2 5 6 7 6 1 4 5 7 6 7 7 6 6 7 8 7 7 7 7 10 9 10 10 8 7 6 13 13 17 15 15 17 16 17 16 17 18 18 18 17 18 18 15 17 17 16 14
25 25 26 26 27 25 25 24 26 21 16 2 1 2 2 3 2 2 0 6 6 5 8 10 6 8 7 13 11 3 4 0 5 4 2 2 3 4 2 2 2 4 4 4 3 2 5 8 6 8 8 7 8 6 7 10 9 8 7 8 8 9 8 13 11 8 3 11 8 19 17 15 18 18 16 20 22 18 18 19 18 18 16 14 16 17 16 14
27 25 25 27 27 27 25 25 25 22 0 1 3 3 3 4 2 1 2 3 7 5 5 5 4 5 7 5 1 4 1 3 3 3 3 3 4 5 4 3 5 3 4 5 6 4 4 6 10 9 8 8 7 9 8 7 7 7 7 6 10 9 3 7 2 1 6 1 5 17 18 10 9 10 15 17 18 14 16 16 14 15 17 17 18 18 17 18
26 26 26 25 27 27 28 27 25 3 4 8 6 4 6 5 4 5 2 1 4 6 5 5 3 5 4 1 1 2 4 0 1 4 3 4 5 3 2 4 6 3 6 7 8 7 7 7 13 11 9 9 10 9 8 7 7 6 8 8 9 9 9 8 8 6 4 12 12 10 7 5 6 11 10 11 9 6 12 13 11 12 12 14 14 15 17 20
26 26 26 24 25 26 29 24 3 5 9 6 2 3 3 4 2 4 3 3 1 6 3 2 3 1 1 2 0 0 0 1 3 3 2 2 2 1 1 2 2 6 5 8 8 7 8 13 5 8 8 8 7 7 9 7 7 5 7 11 11 11 12 9 6 5 6 8 7 12 5 2 5 12 16 12 10 11 12 16 16 15 13 11 14 16 16 16
25 26 24 22 23 23 27 4 3 8 10 2 2 11 8 5 6 2 3 2 3 3 1 2 2 2 1 2 1 3 3 1 3 3 2 2 3 1 0 1 1 5 8 7 8 4 8 10 7 9 10 11 9 9 8 7 7 6 6 7 12 12 10 8 7 3 1 5 7 7 7 4 2 9 11 11 15 14 11 16 16 15 14 13 14 15 15 17
24 25 22 22 20 19 10 2 4 9 3 3 6 9 9 8 4 4 3 1 2 1 2 2 1 0 1 0 1 2 1 2 4 2 2 2 2 0 1 4 2 1 1 1 1 3 6 10 9 6 9 11 9 9 9 9 6 6 8 5 2 3 5 6 4 3 4 3 2 2 8 6 3 10 11 11 13 13 13 15 16 16 16 16 15 15 16 16
25 22 21 20 19 10 5 5 8 6 5 6 8 9 10 6 5 3 1 2 2 1 0 1 0 2 1 1 4 2 5 3 1 1 2 3 4 2 1 2 2 2 3 2 1 7 1 1 5 6 6 7 9 10 11 9 6 4 8 8 6 5 5 5 4 4 3 1 7 3 5 5 4 11 11 10 9 10 13 16 17 17 18 18 17 16 16 17
22 21 19 19 18 22 2 6 1 5 5 5 8 10 8 6 2 3 2 3 1 1 1 1 3 0 0 2 1 1 2 1 1 3 0 1 1 4 1 3 2 2 4 3 4 3 2 0 4 4 3 6 7 12 13 7 6 7 10 6 3 3 2 2 1 4 5 2 5 2 2 5 5 1 7 8 12 15 16 18 18 20 21 20 18 17 16 15
22 20 19 17 14 1 3 2 6 9 7 8 9 10 9 3 2 2 2 3 0 0 2 1 1 1 1 1 0 2 2 2 4 0 0 2 0 1 1 1 1 2 3 2 4 5 6 7 6 1 4 3 4 9 12 9 11 2 3 7 4 2 1 2 4 2 4 1 4 2 2 5 0 5 11 10 14 17 15 14 16 15 13 15 15 16 16 16
23 22 18 12 3 3 2 4 9 7 6 4 8 9 2 2 1 1 3 1 0 2 1 0 2 1 2 2 2 1 1 1 0 2 1 1 2 3 4 3 4 1 1 3 6 4 3 2 3 2 3 3 1 2 2 7 8 3 0 0 1 3 4 2 2 5 0 4 6 2 3 3 3 2 9 16 19 21 19 19 19 18 19 18 17 17 18 17
24 23 19 8 6 2 3 3 3 3 6 8 8 4 3 2 1 4 2 1 2 2 1 1 2 1 2 2 4 2 2 1 1 1 1 1 5 6 7 3 2 0 3 3 3 5 3 2 3 4 4 2 1 4 7 4 1 6 5 6 4 2 1 3 2 2 1 3 4 2 5 2 2 6 12 17 16 18 16 16 19 20 20 20 19 19 17 16
25 23 22 6 7 4 6 10 7 7 7 7 5 2 4 3 4 5 2 8 2 2 2 2 0 0 1 3 2 1 1 2 1 1 2 3 8 6 9 9 6 1 2 2 2 8 5 3 8 8 3 8 3 3 2 2 3 4 4 3 3 2 1 1 1 1 2 6 6 5 2 1 4 6 9 17 18 16 17 15 13 18 20 21 19 17 16 16
24 21 9 4 7 8 6 4 6 2 5 6 3 6 2 6 2 6 5 4 5 7 7 6 10 2 3 1 0 0 3 2 2 3 6 3 7 6 8 12 13 8 4 3 6 2 4 5 5 9 4 9 6 2 3 2 1 2 4 7 6 4 3 2 2 2 5 6 5 6 3 2 0 3 6 18 21 17 14 16 15 16 17 19 20 18 17 15
26 15 7 4 5 9 13 10 7 1 2 4 5 3 6 2 1 6 5 7 6 8 10 12 3 2 3 0 1 3 1 1 4 9 11 11 6 6 7 8 11 5 1 4 3 2 1 4 3 5 6 3 7 7 4 1 2 2 1 6 5 4 4 1 4 3 1 2 4 3 2 3 4 4 6 5 9 14 21 20 19 17 15 14 11 14 15 16
14 6 2 3 2 4 7 7 2 2 2 5 5 7 7 3 2 4 3 4 3 6 10 9 9 3 0 1 1 4 8 3 4 6 8 12 10 8 6 5 8 10 5 4 1 2 2 1 2 11 2 7 13 11 6 1 1 3 3 3 7 6 6 1 2 1 2 2 4 2 3 6 6 8 7 10 10 11 13 20 18 20 19 15 16 17 18 17
8 8 5 4 2 5 5 4 4 4 2 2 4 5 1 1 3 3 4 7 7 5 6 7 6 5 4 1 3 4 4 3 5 2 1 1 8 11 6 6 10 8 6 3 2 1 1 7 7 6 10 10 15 12 2 12 5 2 2 3 6 1 4 4 3 1 2 4 4 0 3 3 2 5 7 6 8 10 3 13 17 16 14 16 17 18 19 19
7 5 4 4 5 4 3 4 6 2 2 3 5 6 1 4 7 7 3 5 4 7 5 5 2 8 8 8 9 8 5 5 7 3 3 7 4 5 6 3 9 10 12 5 3 4 0 4 5 5 6 8 14 9 10 12 12 8 2 9 1 2 0 3 2 2 0 1 1 3 1 2 2 4 12 16 15 14 15 7 15 15 14 17 17 19 19 19
2 1 4 6 3 2 3 5 5 4 2 4 3 4 3 7 9 13 10 6 1 2 5 3 2 6 5 6 4 8 12 6 5 6 3 4 5 8 5 5 4 10 11 10 8 5 4 2 6 2 10 9 4 9 6 10 16 10 6 9 2 1 1 1 4 2 5 1 2 4 1 1 6 5 11 16 15 16 17 16 9 18 17 17 17 18 19 17
4 3 3 3 2 1 3 5 3 3 2 5 2 3 2 8 9 13 14 13 8 7 6 5 8 5 8 5 8 4 7 11 8 8 8 6 3 5 11 9 5 8 8 9 7 5 2 2 2 8 7 4 5 6 5 6 7 9 11 10 8 3 3 3 2 2 2 3 3 2 2 3 5 5 9 12 14 14 17 19 13 14 16 19 19 18 17 18
2 1 2 3 2 2 5 5 2 1 2 2 3 4 10 6 7 11 14 15 7 6 5 8 6 8 4 6 9 9 4 8 9 9 6 7 7 2 10 8 7 7 3 9 11 8 3 4 3 6 9 4 4 3 4 6 2 3 5 7 7 9 8 5 4 4 1 2 3 4 6 3 8 5 7 10 13 16 18 20 18 8 14 17 15 18 17 17
3 4 7 9 13 1 5 4 1 1 4 7 5 5 5 6 9 10 11 9 10 5 5 4 8 7 7 6 3 6 2 7 7 7 8 7 8 5 5 10 7 5 5 3 2 4 1 0 3 5 3 9 5 7 3 3 2 10 11 10 9 5 5 3 1 4 3 3 2 3 2 3 3 6 5 9 12 16 17 19 20 19 15 4 14 18 17 18
5 2 9 10 11 4 5 4 4 5 3 3 8 10 6 8 5 6 9 11 7 8 5 7 8 4 8 4 5 7 6 6 7 7 6 9 9 8 6 10 9 10 3 6 5 6 7 3 7 7 7 8 6 4 8 11 6 8 10 10 11 9 7 4 3 2 1 7 5 5 0 4 6 11 8 8 11 14 16 20 20 20 20 17 13 4 12 15
1 3 7 8 10 8 13 7 5 7 4 5 10 8 7 6 7 8 9 9 5 5 5 6 6 9 5 9 9 9 8 3 8 8 5 4 6 9 11 9 8 5 6 1 2 8 2 2 3 4 7 11 7 6 6 4 10 6 4 6 8 9 9 10 1 3 3 2 0 2 3 2 10 10 9 10 13 14 19 19 20 21 20 20 20 14 3 6
2 2 4 7 8 10 8 2 4 5 7 6 6 7 5 5 5 7 8 9 5 6 3 7 8 5 7 6 9 8 10 7 2 7 4 4 4 6 10 11 9 5 6 7 9 3 5 2 4 3 1 3 5 6 6 10 11 7 1 7 6 11 13 11 6 6 2 2 5 1 3 2 7 9 12 12 11 14 14 16 18 18 19 20 19 20 18 13
5 3 5 6 6 7 5 3 6 6 6 4 9 8 6 3 3 9 6 7 9 7 9 5 8 9 12 10 9 10 9 8 7 2 4 4 3 3 5 8 7 6 10 13 9 3 1 2 3 2 1 3 3 4 5 6 7 9 12 4 7 7 6 3 2 1 1 5 6 5 1 9 14 15 12 14 11 11 12 16 16 18 19 19 19 18 16 15
0 4 3 6 6 8 6 7 7 7 5 2 4 4 8 8 4 3 10 3 8 7 4 10 7 8 7 9 5 4 7 6 6 5 6 3 2 3 6 7 7 12 15 9 10 2 3 4 2 3 1 2 3 4 7 9 10 10 14 12 5 5 4 5 4 5 4 7 6 4 3 10 11 9 10 11 12 8 9 10 13 15 16 17 17 17 21 20
4 2 1 1 2 4 5 7 8 8 8 7 4 2 8 8 9 6 4 6 4 9 4 4 9 7 5 6 3 4 5 4 6 4 3 3 1 5 3 7 4 7 7 2 4 4 2 1 1 2 3 5 6 8 9 9 7 8 11 14 12 6 4 4 4 6 6 3 8 6 5 5 6 5 9 7 7 8 8 6 10 12 13 15 18 20 21 20
3 1 1 4 3 3 5 6 10 9 10 7 2 6 7 8 7 5 3 2 4 4 5 4 6 7 4 3 4 2 3 4 5 3 4 5 5 4 3 3 4 7 5 3 3 1 2 2 2 3 4 4 3 5 8 11 10 10 8 11 14 11 7 3 4 6 9 9 10 7 4 3 3 4 7 7 8 8 8 7 10 14 14 14 17 18 18 18
5 3 5 5 2 3 5 4 4 8 7 7 3 7 3 5 6 4 3 3 2 3 3 4 4 6 5 2 2 3 2 2 2 2 3 5 8 4 3 1 2 5 5 2 1 1 3 2 4 3 4 5 6 5 6 7 8 11 10 8 12 13 11 7 6 6 8 5 5 8 4 1 2 6 6 5 6 5 9 12 11 10 11 14 15 15 16 16
1 1 1 1 5 3 3 4 5 6 4 5 5 4 3 4 3 3 3 2 3 1 0 1 3 4 3 5 5 4 4 5 4 3 3 2 2 1 2 3 2 4 4 1 0 0 2 2 1 0 1 4 3 5 7 9 10 11 11 8 8 11 11 4 3 3 1 4 5 3 3 2 6 9 7 8 9 12 12 11 11 10 11 13 15 14 14 16
1 0 1 1 3 3 3 1 3 5 4 2 2 2 2 4 2 1 1 3 1 2 1 3 2 0 1 4 2 1 1 1 3 4 4 3 2 4 4 4 1 0 1 1 0 1 2 2 1 0 0 3 3 3 8 8 8 10 6 1 4 3 3 4 1 8 5 4 2 0 1 4 7 8 8 10 9 7 8 10 10 12 11 12 14 13 13 13
Wind_Direction
351 350 350 348 347 345 345 345 344 344 341 340 338 334 328 326 326 326 327 325 324 318 319 317 308 305 306 311 314 312 330 299 311 218 204 241 195 224 216 210 200 207 206 198 144 135 162 185 208 203 188 169 218 236 234 229 232 205 209 219 268 243 279 242 195 197 169 141 132 134 142 130 134 174 144 145 118 114 113 81 70 113 174 131 139 143 145 144
350 349 348 347 345 343 343 343 342 340 341 340 338 333 328 327 328 326 327 326 325 321 319 319 309 301 306 314 315 313 328 245 248 238 229 212 197 210 227 196 173 178 164 189 177 179 155 184 201 188 182 192 185 235 172 226 199 213 203 176 247 190 232 158 147 123 148 133 125 135 153 134 129 151 176 162 143 138 124 122 139 160 122 130 142 143 147 151
348 348 347 346 344 342 341 340 339 338 340 339 334 330 329 329 325 323 326 327 325 323 320 319 309 304 305 315 315 330 331 290 243 254 264 222 215 204 205 180 153 162 166 164 196 176 188 177 186 177 193 225 210 231 203 239 203 205 212 220 239 221 226 124 151 159 185 133 131 138 121 93 115 141 169 153 137 141 155 154 168 155 140 146 151 150 151 157
346 346 345 344 342 342 339 338 337 338 338 335 333 329 327 324 324 325 325 327 326 321 319 318 309 305 303 312 306 311 297 278 343 251 240 171 199 207 202 198 175 173 167 151 151 185 226 306 241 193 181 217 247 242 240 226 227 189 194 225 237 212 222 160 148 144 141 141 133 123 141 112 159 130 172 129 118 193 178 191 182 153 151 152 154 155 156 159
345 344 343 343 341 340 338 337 336 335 334 333 333 327 324 323 322 322 323 324 323 319 314 311 306 298 299 305 359 340 326 33 250 243 234 162 182 196 201 189 185 171 162 155 114 280 12 348 45 247 218 214 239 236 237 239 224 290 220 232 242 207 119 171 146 135 141 137 124 137 143 165 134 149 194 161 158 182 183 194 178 149 154 155 157 157 161 158
343 342 341 341 339 338 337 336 334 333 332 333 330 327 325 321 319 318 319 319 319 318 312 306 302 299 302 156 299 244 23 104 267 242 172 177 179 192 193 180 181 157 144 144 162 148 160 244 172 179 213 232 223 214 226 224 208 239 261 243 235 220 171 175 146 145 145 147 136 151 146 119 161 130 101 171 343 15 13 263 148 154 157 154 153 157 161 157
342 340 340 339 338 336 334 334 332 332 331 330 328 327 323 323 319 314 316 316 316 314 304 303 296 303 318 135 211 34 104 271 299 252 177 164 164 158 164 171 173 145 153 151 179 166 184 170 176 213 218 222 243 232 245 246 213 238 261 276 262 198 196 174 151 148 160 158 152 140 139 138 149 135 173 173 198 305 278 241 139 155 156 156 158 165 162 159
341 340 339 338 337 335 333 331 330 330 331 328 327 324 325 321 317 312 311 318 317 312 302 295 296 304 235 197 112 350 115 250 237 240 170 133 133 148 152 148 170 160 164 185 170 189 153 186 201 196 236 216 194 211 240 240 250 241 250 255 263 252 176 169 139 149 154 149 125 136 146 152 161 149 147 198 183 210 254 99 140 152 161 161 159 164 165 159
339 339 338 337 336 334 331 329 330 330 330 328 326 325 324 320 315 310 313 316 315 310 297 285 288 150 204 217 159 4 256 234 225 174 152 144 141 139 138 151 176 168 182 178 194 180 155 207 215 206 211 222 238 235 234 230 275 236 242 245 253 247 153 148 137 140 155 141 143 145 143 141 130 122 152 185 197 205 205 195 148 162 166 165 164 164 166 160
338 338 337 336 335 333 330 329 329 329 328 327 326 324 320 315 313 312 309 309 305 303 290 274 264 191 201 264 174 78 244 229 164 157 146 145 135 142 170 150 163 175 168 196 181 183 196 189 198 195 250 287 264 246 261 202 238 261 273 253 244 255 141 148 148 149 157 159 156 148 146 151 153 150 199 206 200 184 185 180 154 162 173 167 170 164 164 159
338 337 337 336 334 332 331 329 328 327 327 325 324 322 317 313 307 301 304 301 297 293 281 266 187 159 219 258 116 205 253 120 166 156 147 152 139 148 187 161 172 171 180 179 199 200 214 219 213 4 310 235 267 263 219 217 279 275 280 290 281 279 139 156 142 145 156 167 160 143 135 130 165 329 211 190 194 175 185 168 156 164 173 169 175 162 163 162
337 336 335 335 333 331 330 328 327 326 325 324 321 320 315 309 304 303 304 298 290 281 268 215 163 183 235 335 194 227 257 292 46 171 158 161 164 181 183 167 176 178 180 182 203 212 222 226 277 252 243 357 277 312 271 289 293 303 301 292 282 295 82 154 148 156 168 148 151 140 105 132 172 214 205 186 171 179 176 177 165 165 169 171 175 158 165 166
335 335 334 333 331 330 329 328 326 325 324 322 320 318 313 306 300 299 297 292 267 257 229 191 169 213 114 3 228 241 279 286 293 282 170 176 196 182 177 171 180 187 184 185 197 215 219 219 216 227 241 260 266 266 287 328 322 325 341 261 326 6 344 167 152 161 163 157 153 167 108 218 210 208 179 172 180 171 173 182 165 168 172 173 174 162 166 168
335 333 333 332 329 328 328 327 326 324 322 321 320 315 310 302 295 296 284 266 261 236 206 180 182 203 140 247 262 236 250 241 258 276 239 209 188 220 171 186 179 190 194 199 219 204 222 238 252 246 271 255 273 322 308 327 328 332 291 340 214 74 264 160 161 167 160 164 168 197 144 229 216 210 202 179 183 173 171 174 163 165 171 176 178 166 170 173
334 333 332 331 329 327 327 325 324 322 321 321 318 313 306 297 296 291 270 259 242 217 195 165 188 122 72 267 267 270 258 215 231 213 220 195 183 269 157 170 177 191 196 209 228 215 217 231 227 239 254 207 251 350 316 334 339 291 22 308 325 161 280 280 147 171 148 183 185 170 82 202 203 200 198 182 183 175 167 169 168 166 171 175 179 169 174 172
332 332 332 330 328 325 324 326 323 322 322 320 317 313 304 294 291 286 252 220 205 179 165 129 186 201 332 288 272 315 341 138 224 222 227 183 178 193 195 167 180 197 191 218 220 236 242 254 244 216 249 268 269 139 336 11 332 336 172 263 285 130 239 338 251 171 168 162 202 217 190 105 257 198 187 182 177 173 166 168 171 173 175 175 179 172 175 166
331 332 331 328 326 324 325 324 324 323 322 320 319 310 301 286 288 270 233 171 154 149 170 141 130 191 42 245 302 301 243 227 217 268 184 210 161 164 150 159 173 197 200 206 206 214 240 233 250 243 233 177 179 161 39 321 294 295 230 193 212 189 260 238 296 172 171 154 194 226 146 206 170 173 178 180 177 169 168 170 173 175 178 180 177 174 177 171
331 331 329 327 324 324 322 324 324 324 322 320 318 297 293 297 314 107 74 106 135 162 234 276 223 352 289 311 323 224 249 158 142 211 180 239 176 153 146 174 177 181 167 222 234 207 163 256 182 203 266 205 185 131 153 217 198 225 325 333 315 278 223 233 211 242 163 174 174 201 222 206 183 167 175 177 178 173 174 174 175 174 178 182 179 176 176 177
331 330 328 325 323 322 322 322 324 324 324 320 307 288 268 254 203 205 116 144 117 38 35 240 150 130 126 231 249 300 286 207 231 158 312 112 211 160 132 179 179 140 175 151 282 192 198 130 347 54 237 203 217 178 185 214 195 221 242 232 232 250 261 232 234 224 166 181 186 189 202 181 175 169 174 176 178 178 177 171 173 176 177 178 181 179 180 179
331 328 327 325 321 321 321 322 321 322 331 332 346 345 13 17 4 6 335 126 194 219 246 226 217 290 317 306 269 234 302 110 41 220 223 249 166 143 243 118 154 145 128 181 197 209 141 186 197 206 215 217 229 195 192 227 261 289 298 291 276 279 276 260 263 230 175 175 193 195 190 170 179 175 177 178 175 177 177 175 174 178 177 175 180 184 181 181
330 330 327 322 323 321 321 322 319 319 322 305 297 338 44 332 10 320 328 269 226 235 239 253 225 234 252 290 285 52 43 299 171 253 215 182 109 116 272 103 107 177 172 168 164 241 159 190 225 218 220 204 218 212 215 238 244 244 255 268 274 263 272 268 263 263 184 188 204 193 177 182 179 179 178 176 177 183 182 182 181 180 178 175 179 183 183 182
330 328 327 324 322 323 322 322 318 316 322 257 31 19 286 240 247 218 270 314 308 225 239 257 250 260 254 246 245 165 120 304 316 290 263 105 141 132 274 110 144 191 198 187 181 125 193 209 223 219 218 222 230 226 218 226 232 234 229 250 267 266 258 277 265 264 257 211 197 178 182 185 179 178 179 180 187 187 184 183 183 177 178 177 179 181 180 175
331 328 327 325 323 322 325 319 317 322 313 35 344 299 268 263 296 103 75 266 272 279 276 265 270 260 253 237 280 102 156 181 251 288 209 166 122 188 151 144 191 203 185 191 177 155 201 254 228 214 214 216 230 232 228 225 227 224 235 251 249 253 264 304 240 14 319 192 163 183 177 178 167 173 186 191 186 189 185 182 183 183 180 180 181 179 177 179
330 328 327 326 324 325 323 323 310 296 335 313 278 245 267 290 290 47 55 215 295 302 206 233 215 243 235 207 237 107 118 293 165 276 203 129 132 178 164 174 199 184 203 196 195 168 201 229 215 212 215 212 223 228 227 225 242 228 214 223 245 257 250 204 283 312 324 338 160 117 57 67 143 169 198 208 198 194 189 180 188 195 194 190 183 179 179 179
327 327 327 325 327 326 322 317 1 334 316 302 221 284 305 285 346 101 87 335 336 273 218 230 193 263 292 333 351 79 222 293 217 226 198 106 146 116 185 222 146 219 207 199 205 204 227 241 201 198 218 231 229 241 233 205 231 255 229 215 235 248 259 261 268 315 31 31 99 115 87 264 216 200 196 176 185 195 189 184 191 193 194 189 193 188 183 183
325 326 326 325 326 333 313 345 352 335 338 283 351 333 335 349 1 55 91 72 323 271 90 200 46 192 18 188 110 131 73 321 244 228 124 177 157 139 143 331 171 205 215 190 200 191 219 229 214 192 202 219 226 230 229 188 217 228 256 216 227 241 255 266 284 357 40 118 227 135 146 241 241 219 208 190 193 190 183 191 191 193 196 192 194 191 187 183
323 324 325 324 327 342 4 342 327 313 352 332 330 329 322 325 4 43 57 5 356 253 169 304 359 325 339 237 110 69 50 268 307 353 57 242 131 77 122 264 350 308 34 312 171 231 198 222 226 210 197 205 213 231 236 192 189 235 245 237 255 280 275 272 270 224 225 228 122 81 133 146 195 235 217 201 192 190 191 194 193 195 196 197 194 190 190 186
321 322 322 324 321 339 216 302 328 337 248 254 310 316 312 317 350 53 79 70 18 228 68 244 278 300 331 278 95 131 192 219 55 271 207 211 101 11 99 214 181 254 291 71 149 255 353 270 223 232 212 195 205 213 231 194 182 214 253 247 252 248 275 299 337 296 244 25 284 18 100 67 211 217 197 179 194 205 205 197 200 196 197 199 196 192 191 189
318 321 321 322 327 306 211 192 201 256 249 286 307 308 310 326 66 94 126 111 58 321 312 159 341 251 295 52 80 233 312 136 154 243 24 21 331 141 250 249 185 265 268 173 232 304 287 237 278 197 176 201 208 213 225 194 209 240 243 259 223 278 290 48 69 41 337 80 265 306 165 121 241 284 165 184 199 203 205 203 203 202 199 196 195 195 191 189
317 320 319 324 327 286 134 227 231 240 274 298 298 303 307 23 38 36 7 64 99 344 311 311 17 236 145 103 286 223 213 246 175 238 283 167 285 36 219 196 239 324 313 318 253 223 237 258 232 213 199 205 205 212 201 190 214 222 249 251 274 43 71 13 65 83 45 351 255 229 248 131 183 216 177 173 204 204 206 209 210 207 203 201 199 195 192 190
318 316 316 323 286 267 332 288 252 244 256 301 317 306 342 37 101 130 64 251 270 308 327 259 268 330 133 151 259 275 128 278 101 133 350 36 3 18 357 13 16 22 15 345 302 309 317 312 346 250 252 292 97 340 228 182 197 120 105 265 17 336 8 29 343 40 85 278 262 240 76 111 148 289 208 200 202 202 198 201 200 199 198 197 197 198 196 192
319 315 314 312 218 288 175 226 259 337 335 333 331 347 56 43 9 87 31 217 89 284 230 268 213 176 170 260 200 161 196 28 52 44 65 133 63 42 9 71 352 13 340 341 309 335 355 318 236 263 263 133 13 48 314 30 81 108 80 33 112 257 33 266 5 292 224 217 259 343 50 41 230 207 195 209 212 214 210 207 198 197 199 198 198 198 194 191
319 315 314 283 199 190 232 248 296 309 322 330 339 41 65 90 60 334 17 332 89 190 312 272 222 85 155 49 62 175 133 145 357 86 70 32 108 78 50 41 348 143 158 278 43 12 292 318 18 318 340 1 357 99 319 299 4 93 136 122 85 77 63 199 265 205 310 301 269 276 76 212 243 262 206 204 214 213 212 216 212 205 201 196 198 197 194 192
317 316 320 189 189 210 241 222 242 279 332 353 13 33 70 62 21 333 37 5 334 337 6 358 326 355 67 119 238 102 43 348 76 356 42 47 44 24 15 25 15 359 73 35 63 331 44 357 346 11 354 329 360 73 195 157 204 227 167 141 177 140 156 177 175 157 204 217 291 329 48 238 36 251 203 198 205 208 214 219 213 213 209 202 196 191 191 191
314 299 251 251 227 239 237 242 250 206 28 0 43 73 69 52 29 350 355 346 342 349 349 334 324 341 345 20 16 43 77 11 33 61 61 59 25 40 17 4 5 13 6 71 345 57 298 238 271 321 238 306 11 331 306 92 3 286 221 88 94 224 147 154 203 134 148 34 351 345 202 193 211 251 282 212 207 204 210 212 209 211 208 201 189 191 192 193
320 322 243 266 225 252 196 222 195 123 76 31 65 46 60 48 341 341 0 297 317 348 334 345 21 1 186 14 27 81 7 102 11 92 73 79 46 48 23 6 10 8 18 81 5 19 356 302 296 316 19 43 354 342 319 26 134 287 56 162 205 187 125 102 340 249 120 62 255 204 332 301 305 313 277 268 257 244 193 213 205 205 203 183 189 191 193 193
356 331 7 307 265 254 227 184 138 113 103 72 78 62 221 60 343 320 354 358 325 342 15 25 12 346 4 6 8 20 12 57 3 79 90 102 43 1 8 24 8 4 17 137 24 158 118 267 299 18 347 348 343 329 48 38 16 60 48 271 281 279 120 127 206 330 96 128 255 58 188 294 355 279 318 321 283 283 290 218 216 209 194 184 192 192 193 195
326 319 255 265 256 272 180 152 112 95 69 53 48 68 320 59 6 14 331 355 356 33 53 28 12 12 38 32 18 355 348 75 333 53 74 25 106 321 18 343 1 13 5 20 116 323 5 356 291 35 358 348 340 6 32 1 40 82 274 270 37 12 112 328 110 206 145 149 251 305 215 284 200 296 354 358 355 346 331 288 233 212 192 193 193 194 197 196
260 354 8 308 314 204 125 104 78 71 54 51 29 46 352 58 18 19 360 352 54 50 37 357 35 33 45 42 334 26 24 37 21 46 72 12 76 329 6 338 358 3 26 35 49 325 23 74 304 353 35 317 6 21 40 329 337 7 352 12 5 109 116 57 190 181 114 226 103 280 43 183 352 335 348 5 351 351 347 342 240 221 197 195 195 193 193 191
4 32 324 270 336 90 89 75 63 44 56 66 347 77 320 50 13 19 22 16 27 8 34 7 17 46 30 53 40 23 12 38 55 62 58 11 115 3 18 350 3 349 24 41 64 14 33 39 290 292 344 34 25 14 26 353 345 344 12 4 0 353 228 172 295 138 159 173 168 187 317 29 352 277 7 7 358 359 358 348 326 221 207 199 194 192 191 189
297 92 266 290 322 108 52 45 42 44 79 338 31 57 54 42 13 21 17 24 31 17 43 47 32 48 358 21 29 11 45 37 42 57 55 49 28 59 1 356 357 12 342 28 38 9 27 17 331 323 345 54 131 42 316 320 289 321 56 33 346 11 12 37 291 333 25 106 205 174 234 109 343 347 22 19 6 3 7 5 348 303 223 201 197 194 187 189
36 43 14 315 311 321 83 42 318 186 76 60 45 27 53 31 39 14 23 9 42 12 349 46 33 49 24 47 48 32 47 49 42 76 38 70 28 45 340 4 20 29 56 50 308 348 14 129 33 312 229 274 256 261 271 347 54 76 56 22 0 22 26 32 32 294 357 313 294 185 148 127 272 329 25 25 18 7 8 11 7 359 357 292 213 192 189 188
34 262 266 291 323 40 75 54 4 41 58 90 85 57 57 58 43 27 35 10 34 358 18 26 15 26 27 15 33 48 25 73 30 75 102 68 48 20 359 20 14 20 49 9 351 353 341 52 338 295 289 260 249 225 111 48 57 45 29 16 11 15 355 312 237 333 326 330 43 350 335 211 343 344 3 22 26 19 17 18 8 11 8 11 6 276 201 191
283 286 319 304 353 28 60 38 21 23 42 69 79 80 61 61 32 37 36 21 25 2 29 23 19 28 44 18 44 44 9 112 35 49 52 21 52 4 18 10 9 43 27 313 40 317 40 329 86 336 344 332 356 17 2 38 65 67 340 4 350 343 352 334 291 15 91 110 11 148 250 334 329 332 351 14 27 26 23 14 15 16 11 14 13 7 321 248
266 258 233 306 358 38 69 22 67 51 37 36 60 57 30 32 7 42 47 32 7 28 357 41 32 23 34 23 50 43 40 61 130 43 77 47 62 8 12 13 9 62 30 50 35 350 88 347 65 67 35 310 321 358 335 336 341 334 141 354 347 354 4 3 16 338 58 307 20 309 267 273 301 341 353 4 30 32 26 21 17 21 21 13 14 19 17 35
26 40 319 346 360 21 43 29 69 72 50 19 49 38 45 68 25 27 18 52 23 34 47 39 25 36 32 28 36 27 22 32 63 18 42 31 360 22 350 1 21 30 49 42 30 24 83 27 85 130 137 195 223 249 265 302 315 320 322 3 342 349 345 10 289 356 349 317 331 258 143 332 349 345 349 356 22 30 23 24 14 16 16 17 18 16 17 21
187 58 354 344 332 28 30 22 45 38 40 343 85 356 49 43 10 18 0 75 17 25 42 34 31 37 18 36 28 33 16 28 30 56 31 47 3 11 322 22 38 45 42 38 23 49 58 40 309 8 275 228 254 287 313 329 312 314 320 322 355 339 351 18 13 289 313 346 312 262 10 0 322 329 348 357 13 30 39 18 18 17 20 17 16 13 16 20
61 295 76 202 123 336 25 18 44 46 38 42 59 12 56 44 31 25 353 44 35 30 42 353 24 38 60 73 48 41 0 27 23 17 342 43 5 359 12 357 61 41 59 49 41 88 113 98 280 43 309 322 333 330 334 325 314 309 312 313 320 330 319 328 304 299 312 267 254 283 326 335 315 4 348 12 20 25 32 51 33 16 16 19 20 19 15 14
91 312 339 330 72 4 75 79 58 56 41 21 68 31 57 49 45 29 32 354 27 22 39 57 355 354 17 57 78 75 28 35 353 338 12 353 9 2 12 336 357 23 48 43 47 92 77 311 274 25 326 329 328 325 322 314 311 311 307 309 310 312 308 301 285 294 289 271 269 282 317 310 7 345 335 13 24 32 23 25 42 29 13 17 27 25 16 12
23 19 335 352 30 13 34 47 50 54 54 9 66 2 34 55 45 10 37 45 41 14 8 57 329 335 358 58 94 80 73 118 128 322 326 38 343 22 350 8 309 334 5 5 71 349 101 282 347 351 339 314 323 320 308 297 311 312 316 313 310 308 302 289 279 273 284 298 328 336 360 331 22 355 334 20 36 42 43 36 37 37 14 20 27 25 20 14
276 87 201 28 2 14 51 38 67 72 51 0 61 359 57 39 62 2 62 7 97 127 320 62 277 312 342 47 43 58 29 37 0 333 312 19 320 255 66 277 357 323 339 342 43 34 89 244 45 122 34 306 338 339 322 327 316 308 305 311 302 300 301 312 279 296 6 292 310 355 11 313 321 344 343 18 29 36 38 28 33 36 24 23 24 23 19 14
9 233 74 116 72 4 72 14 43 56 36 329 36 54 20 41 72 56 28 305 195 200 184 218 234 35 313 13 23 181 164 74 329 309 306 265 229 261 243 270 291 173 261 290 189 95 171 138 119 79 270 250 269 341 325 311 336 309 288 267 294 313 315 334 58 43 15 291 105 151 237 5 329 344 358 6 11 30 44 37 34 25 26 30 23 18 12 12